Location: Unspecified
(0.0000°N, 0.0000°E)
Time: 02:26:38
(UTC+02:00)

Ariane H10 - Visible Passes

Search period start: 31 August 2016 00:00
Search period end: 10 September 2016 00:00
Orbit: 415 x 35081 km, 3.8° (Epoch: 28 August)

Date Brightness Start Highest point End Pass type
(mag) Time Alt. Az. Time Alt. Az. Time Alt. Az.
31 Aug 7.3 12:04:55 10° W 20:37:54 86° NNW 21:46:07 29° E visible
02 Sep 7.9 16:14:32 10° W 17:59:26 54° W 01:34:19 39° W visible
03 Sep 7.5 12:38:15 10° W 18:06:08 88° N 22:17:39 42° E visible
05 Sep 5.4 05:50:57 16° E 05:50:57 16° E 05:51:46 10° E visible
05 Sep 8.2 16:53:08 10° W 18:33:25 43° W 02:05:50 25° W visible
06 Sep 7.3 13:11:53 10° W 17:13:14 89° N 22:49:09 58° ENE visible
08 Sep 3.1 06:22:17 53° SE 06:22:17 53° SE 06:26:10 10° E visible
08 Sep 10.9 17:34:58 10° W 19:06:46 32° W 22:55:32 10° W visible
09 Sep 8.5 02:32:28 10° W 02:37:24 14° W 02:37:24 14° W visible
09 Sep 7.2 13:45:54 10° W 15:51:57 90° SSW 23:20:39 75° ENE visible
